Whidbey Island, WA

8:29 PM PDT on May 26, 2017 (GMT -0700)
Whidbey Island Naval Air Station

Weather History for KNUW - January, 2014

Change the Weather History Date:

Saturday, January 18, 2014

  Actual Average Record
Temperature  
Mean Temperature 44 °F -  
Max Temperature 48 °F 45 °F 57 °F (1998)
Min Temperature 41 °F 35 °F 23 °F (2012)
Degree Days  
Heating Degree Days 20    
Moisture  
Dew Point 38 °F    
Average Humidity 81    
Maximum Humidity 89    
Minimum Humidity 71    
Precipitation  
Precipitation 0.00 in - - ()
Sea Level Pressure  
Sea Level Pressure 30.24 in    
Wind  
Wind Speed 6 mph (ESE)    
Max Wind Speed 12 mph    
Max Gust Speed -    
Visibility 7 miles    
Events      
Averages and records for this station are not official NWS values.
T = Trace of Precipitation, MM = Missing Value Source: NWS Daily Summary

Daily Weather History Graph

Daily Weather History Graph

Search for Another Location

Airport or City:

Trip Planner

Search our weather history database for the weather conditions in past years. The results will help you decide how hot, cold, wet, or windy it might be!

Date:

Astronomy

Jan. 18, 2014 Rise Set
Actual Time 7:54 AM PST 4:48 PM PST
Civil Twilight 7:19 AM PST 5:23 PM PST
Nautical Twilight 6:40 AM PST 6:01 PM PST
Astronomical Twilight 6:03 AM PST 6:39 PM PST
Moon 7:52 PM PST (1/18) 8:42 AM PST (1/18)
Length of Visible Light 10h 03m
Length of Day
8h 53m
Waning Gibbous, 94% of the Moon is Illuminated
Jan 18
Waning Gibbous
Jan 23
Last Quarter
Jan 30
New
Feb 6
First Quarter
Feb 14
Full

Hourly Weather History & Observations

Time (PST) Temp. Windchill Dew Point Humidity Pressure Visibility Wind Dir Wind Speed Gust Speed Precip Events Conditions
12:56 AM 42.1 °F 39.2 °F 37.0 °F 82% 30.21 in 1.0 mi East 4.6 mph - N/A   Overcast
1:56 AM 41.0 °F - 37.9 °F 89% 30.22 in 1.0 mi Calm Calm - N/A   Overcast
2:56 AM 42.1 °F 39.2 °F 37.0 °F 82% 30.23 in 2.0 mi East 4.6 mph - N/A   Overcast
3:56 AM 42.1 °F 37.7 °F 37.9 °F 85% 30.23 in 2.0 mi ESE 6.9 mph - N/A   Overcast
4:56 AM 42.1 °F 37.7 °F 37.0 °F 82% 30.23 in 2.0 mi ESE 6.9 mph - N/A   Overcast
5:56 AM 42.1 °F 38.4 °F 37.0 °F 82% 30.23 in 3.0 mi ESE 5.8 mph - N/A   Overcast
6:56 AM 41.0 °F 35.8 °F 37.0 °F 86% 30.22 in 4.0 mi ESE 8.1 mph - N/A   Overcast
7:56 AM 41.0 °F 39.0 °F 36.0 °F 82% 30.23 in 4.0 mi ESE 3.5 mph - N/A   Overcast
8:56 AM 42.1 °F 39.2 °F 37.9 °F 85% 30.25 in 5.0 mi ESE 4.6 mph - N/A   Overcast
9:56 AM 43.0 °F 39.5 °F 37.9 °F 82% 30.27 in 7.0 mi SE 5.8 mph - N/A   Overcast
10:56 AM 44.1 °F 40.1 °F 39.0 °F 82% 30.28 in 10.0 mi SE 6.9 mph - N/A   Overcast
11:56 AM 45.0 °F 41.2 °F 39.0 °F 80% 30.29 in 10.0 mi SE 6.9 mph - N/A   Overcast
12:56 PM 46.0 °F 42.5 °F 39.0 °F 76% 30.29 in 10.0 mi SSE 6.9 mph - N/A   Overcast
1:56 PM 48.0 °F - 39.0 °F 71% 30.27 in 10.0 mi SE 8.1 mph - N/A   Mostly Cloudy
2:56 PM 46.9 °F - 39.0 °F 74% 30.26 in 10.0 mi SE 8.1 mph - N/A   Mostly Cloudy
3:56 PM 46.0 °F 41.0 °F 39.0 °F 76% 30.27 in 10.0 mi SSE 10.4 mph - N/A   Overcast
4:20 PM 46.0 °F 40.6 °F 39.0 °F 76% 30.26 in 10.0 mi SE 11.5 mph - N/A   Overcast
4:56 PM 44.1 °F 39.0 °F 37.9 °F 79% 30.27 in 10.0 mi SE 9.2 mph - N/A   Mostly Cloudy
5:56 PM 43.0 °F 38.2 °F 37.9 °F 82% 30.26 in 8.0 mi ESE 8.1 mph - N/A   Mostly Cloudy
6:56 PM 42.1 °F 37.7 °F 37.0 °F 82% 30.26 in 10.0 mi ESE 6.9 mph - N/A   Mostly Cloudy
7:56 PM 43.0 °F 37.7 °F 37.9 °F 82% 30.23 in 9.0 mi ESE 9.2 mph - N/A   Overcast
8:56 PM 43.0 °F 38.2 °F 39.0 °F 86% 30.21 in 8.0 mi ESE 8.1 mph - N/A   Mostly Cloudy
9:34 PM 44.1 °F 39.5 °F 37.9 °F 79% 30.20 in 9.0 mi East 8.1 mph - N/A   Overcast
9:56 PM 44.1 °F 42.5 °F 39.0 °F 82% 30.21 in 8.0 mi East 3.5 mph - N/A   Overcast
10:56 PM 43.0 °F 41.3 °F 39.0 °F 86% 30.22 in 7.0 mi ESE 3.5 mph - N/A   Overcast
11:56 PM 44.1 °F - 39.9 °F 85% 30.21 in 8.0 mi Calm Calm - N/A   Overcast